Puerto Vallarta, Mexico

2:14 AM CDT on September 29, 2016 (GMT -0500)
Lic Gustavo Diaz Ordaz International

Weather History for MMPR - October, 2012

Change the Weather History Date:

Saturday, October 20, 2012

  Actual Average Record
Temperature  
Mean Temperature 83 °F -  
Max Temperature 89 °F 87 °F 93 °F (2005)
Min Temperature 77 °F 73 °F 68 °F (1997)
Cooling Degree Days 18    
Growing Degree Days 33 (Base 50)    
Moisture  
Dew Point 75 °F    
Average Humidity 76    
Maximum Humidity 89    
Minimum Humidity 59    
Precipitation  
Precipitation 0.00 in - - ()
Sea Level Pressure  
Sea Level Pressure 29.79 in    
Wind  
Wind Speed 2 mph ()    
Max Wind Speed 12 mph    
Max Gust Speed -    
Visibility 12.0 miles    
Events      
Averages and records for this station are not official NWS values.
T = Trace of Precipitation, MM = Missing Value Source: Averaged Metar Reports

Daily Weather History Graph

Daily Weather History Graph

Search for Another Location

Airport or City:

Trip Planner

Search our weather history database for the weather conditions in past years. The results will help you decide how hot, cold, wet, or windy it might be!

Date:

Astronomy

Oct. 20, 2012 Rise Set
Actual Time 7:58 AM CDT 7:32 PM CDT
Civil Twilight 7:35 AM CDT 7:55 PM CDT
Nautical Twilight 7:09 AM CDT 8:21 PM CDT
Astronomical Twilight 6:44 AM CDT 8:46 PM CDT
Moon 1:15 PM CDT (10/20) No Moon Set
Length of Visible Light 12h 19m
Length of Day
11h 34m
Waxing Crescent, 34% of the Moon is Illuminated
Oct 20
Waxing Crescent
Oct 21
First Quarter
Oct 29
Full
Nov 6
Last Quarter
Nov 13
New

Hourly Weather History & Observations

Time (CDT) Temp. Heat Index Dew Point Humidity Pressure Visibility Wind Dir Wind Speed Gust Speed Precip Events Conditions
12:46 AM 82.4 °F 89.5 °F 75.2 °F 79% 29.82 in 12.0 mi Calm Calm - N/A   Mostly Cloudy
1:44 AM 82.4 °F 89.5 °F 75.2 °F 79% 29.81 in 12.0 mi Calm Calm - N/A   Mostly Cloudy
2:46 AM 80.6 °F 86.2 °F 75.2 °F 84% 29.81 in 12.0 mi NNE 4.6 mph - N/A   Mostly Cloudy
3:46 AM 80.6 °F 86.2 °F 75.2 °F 84% 29.82 in 12.0 mi NNE 4.6 mph - N/A   Mostly Cloudy
4:46 AM 80.6 °F 86.2 °F 75.2 °F 84% 29.80 in 12.0 mi Calm Calm - N/A   Mostly Cloudy
5:49 AM 80.6 °F 86.2 °F 75.2 °F 84% 29.79 in 12.0 mi NNE 4.6 mph - N/A   Mostly Cloudy
6:47 AM 78.8 °F - 75.2 °F 89% 29.79 in 12.0 mi Calm Calm - N/A   Scattered Clouds
7:45 AM 77.0 °F - 73.4 °F 89% 29.81 in 15.0 mi Calm Calm - N/A   Clear
8:45 AM 77.0 °F - 73.4 °F 89% 29.81 in 15.0 mi Calm Calm - N/A   Clear
9:46 AM 80.6 °F 85.4 °F 73.4 °F 79% 29.83 in 15.0 mi North 4.6 mph - N/A   Clear
10:49 AM 86.0 °F 95.1 °F 75.2 °F 70% 29.83 in 15.0 mi NNE 3.5 mph - N/A   Clear
11:46 AM 87.8 °F 97.6 °F 75.2 °F 66% 29.83 in 15.0 mi Calm Calm - N/A   Scattered Clouds
12:49 PM 89.6 °F 98.2 °F 73.4 °F 59% 29.80 in 15.0 mi Calm Calm - N/A   Scattered Clouds
1:48 PM 89.6 °F 98.2 °F 73.4 °F 59% 29.79 in 12.0 mi SSW 8.1 mph - N/A   Mostly Cloudy
2:45 PM 89.6 °F 99.8 °F 75.2 °F 62% 29.77 in 12.0 mi SW 8.1 mph - N/A   Scattered Clouds
3:45 PM 89.6 °F 99.8 °F 75.2 °F 62% 29.75 in 10.0 mi SW 9.2 mph - N/A   Scattered Clouds
4:46 PM 87.8 °F 99.7 °F 77.0 °F 70% 29.75 in 10.0 mi SSW 10.4 mph - N/A   Mostly Cloudy
5:47 PM 87.8 °F 99.7 °F 77.0 °F 70% 29.75 in 10.0 mi SW 9.2 mph - N/A   Mostly Cloudy
6:44 PM 86.0 °F 96.9 °F 77.0 °F 74% 29.74 in 10.0 mi WSW 11.5 mph - N/A   Overcast
7:45 PM 86.0 °F 96.9 °F 77.0 °F 74% 29.76 in 10.0 mi Calm Calm - N/A   Mostly Cloudy
8:44 PM 86.0 °F 96.9 °F 77.0 °F 74% 29.77 in 10.0 mi Calm Calm - N/A   Mostly Cloudy
9:49 PM 86.0 °F 96.9 °F 77.0 °F 74% 29.80 in 10.0 mi Calm Calm - N/A   Mostly Cloudy
10:49 PM 84.2 °F 94.1 °F 77.0 °F 79% 29.82 in 10.0 mi Calm Calm - N/A   Scattered Clouds
11:49 PM 84.2 °F 94.1 °F 77.0 °F 79% 29.82 in 10.0 mi Calm Calm - N/A   Scattered Clouds